When you browse on this site, cookies collect data to enhance your experience and personalize the content and advertising you see.
Visit our Privacy Policy to learn more. By continuing to use the site, you agree to this use of cookies and data.
  • en France
  • Liste des pays
  • À 7 jours
  • Température de l'eau
  • Carte satellitaire
  • Carte météo
  • Widgets météo
  • user-avatar
    Se connecter

    Météo par heure à Wuhai

    Ce jour, 19 Juillet, Vendredi

    Heure Température Précipitation Vent Pression Humidité
    00:00 +27°C° 0.1 mm 5 m/s 663 mmHg 55%
    01:00 +27°C° 0 mm 4 m/s 663 mmHg 58%
    02:00 +27°C° 0.3 mm 5 m/s 663 mmHg 55%
    03:00 +26°C° 0.3 mm 7 m/s 663 mmHg 51%
    04:00 +26°C° 0.3 mm 8 m/s 663 mmHg 47%
    05:00 +26°C° 0 mm 6 m/s 663 mmHg 47%
    06:00 +26°C° 0 mm 4 m/s 663 mmHg 47%
    07:00 +24°C° 0 mm 2 m/s 663 mmHg 60%
    08:00 +26°C° 0 mm 3 m/s 664 mmHg 53%
    09:00 +27°C° 0 mm 4 m/s 664 mmHg 46%
    10:00 +29°C° 0 mm 5 m/s 664 mmHg 39%
    11:00 +30°C° 0 mm 5 m/s 664 mmHg 37%
    12:00 +32°C° 0 mm 5 m/s 664 mmHg 36%
    13:00 +32°C° 0 mm 6 m/s 664 mmHg 34%
    14:00 +33°C° 0 mm 5 m/s 663 mmHg 33%
    15:00 +33°C° 0 mm 5 m/s 663 mmHg 32%
    16:00 +33°C° 0 mm 5 m/s 663 mmHg 31%
    17:00 +33°C° 0 mm 4 m/s 663 mmHg 31%
    18:00 +33°C° 0 mm 3 m/s 663 mmHg 31%
    19:00 +33°C° 0 mm 3 m/s 663 mmHg 31%
    20:00 +31°C° 0 mm 3 m/s 663 mmHg 33%
    21:00 +30°C° 0 mm 3 m/s 663 mmHg 36%
    22:00 +29°C° 0 mm 3 m/s 663 mmHg 38%
    23:00 +28°C° 0 mm 3 m/s 663 mmHg 41%

    Demain, 20 Juillet, Samedi

    Heure Température Précipitation Vent Pression Humidité
    00:00 +27°C° 0 mm 4 m/s 662 mmHg 44%
    01:00 +27°C° 0 mm 4 m/s 662 mmHg 47%
    02:00 +26°C° 0 mm 3 m/s 662 mmHg 47%
    03:00 +26°C° 0 mm 3 m/s 662 mmHg 47%
    04:00 +26°C° 0 mm 3 m/s 662 mmHg 47%
    05:00 +26°C° 0 mm 2 m/s 662 mmHg 44%
    06:00 +27°C° 0 mm 2 m/s 663 mmHg 41%
    07:00 +28°C° 0 mm 2 m/s 663 mmHg 39%
    08:00 +30°C° 0 mm 2 m/s 663 mmHg 34%
    09:00 +33°C° 0 mm 3 m/s 664 mmHg 29%
    10:00 +34°C° 0 mm 3 m/s 664 mmHg 24%
    11:00 +35°C° 0 mm 2 m/s 664 mmHg 21%
    12:00 +36°C° 0 mm 2 m/s 663 mmHg 18%
    13:00 +36°C° 0 mm 1 m/s 663 mmHg 15%
    14:00 +37°C° 0 mm 2 m/s 663 mmHg 15%
    15:00 +38°C° 0 mm 2 m/s 662 mmHg 14%
    16:00 +38°C° 0 mm 2 m/s 662 mmHg 13%
    17:00 +38°C° 0 mm 3 m/s 662 mmHg 14%
    18:00 +37°C° 0 mm 4 m/s 662 mmHg 15%
    19:00 +37°C° 0 mm 5 m/s 662 mmHg 16%
    20:00 +36°C° 0 mm 5 m/s 662 mmHg 18%
    21:00 +35°C° 0 mm 5 m/s 662 mmHg 19%
    22:00 +34°C° 0 mm 6 m/s 662 mmHg 21%
    23:00 +33°C° 0 mm 6 m/s 662 mmHg 23%

    Après-demain, 21 Juillet, Dimanche

    Heure Température Précipitation Vent Pression Humidité
    00:00 +33°C° 0 mm 5 m/s 662 mmHg 24%
    01:00 +32°C° 0 mm 5 m/s 662 mmHg 26%
    02:00 +30°C° 0 mm 5 m/s 662 mmHg 28%
    03:00 +30°C° 0 mm 5 m/s 662 mmHg 30%
    04:00 +29°C° 0 mm 5 m/s 662 mmHg 32%
    05:00 +30°C° 0 mm 5 m/s 662 mmHg 34%
    06:00 +30°C° 0 mm 6 m/s 662 mmHg 35%
    07:00 +30°C° 0 mm 6 m/s 663 mmHg 37%
    08:00 +33°C° 0 mm 6 m/s 663 mmHg 31%
    09:00 +34°C° 0 mm 7 m/s 663 mmHg 25%
    10:00 +36°C° 0 mm 7 m/s 663 mmHg 20%
    11:00 +36°C° 0 mm 7 m/s 663 mmHg 20%
    12:00 +37°C° 0 mm 8 m/s 663 mmHg 20%
    13:00 +37°C° 0 mm 8 m/s 662 mmHg 20%
    14:00 +37°C° 0 mm 8 m/s 662 mmHg 20%
    15:00 +37°C° 0 mm 8 m/s 662 mmHg 20%
    16:00 +37°C° 0 mm 8 m/s 661 mmHg 21%
    17:00 +34°C° 0 mm 8 m/s 661 mmHg 28%
    18:00 +33°C° 0 mm 8 m/s 661 mmHg 35%
    19:00 +31°C° 0 mm 9 m/s 661 mmHg 42%
    20:00 +29°C° 0 mm 8 m/s 662 mmHg 43%
    21:00 +29°C° 0 mm 7 m/s 662 mmHg 44%
    22:00 +28°C° 0 mm 6 m/s 662 mmHg 45%
    23:00 +29°C° 0 mm 6 m/s 662 mmHg 43%

    22 Juillet, Lundi

    Heure Température Précipitation Vent Pression Humidité
    00:00 +29°C° 0 mm 6 m/s 662 mmHg 41%
    01:00 +29°C° 0 mm 5 m/s 662 mmHg 39%
    02:00 +28°C° 0 mm 5 m/s 661 mmHg 45%
    03:00 +27°C° 0 mm 5 m/s 661 mmHg 52%
    04:00 +26°C° 0 mm 5 m/s 661 mmHg 58%
    05:00 +26°C° 0 mm 5 m/s 661 mmHg 57%
    06:00 +26°C° 0 mm 5 m/s 661 mmHg 57%
    07:00 +27°C° 0 mm 4 m/s 662 mmHg 56%
    08:00 +27°C° 0 mm 4 m/s 662 mmHg 52%
    09:00 +28°C° 0 mm 3 m/s 662 mmHg 49%
    10:00 +29°C° 0 mm 3 m/s 662 mmHg 45%
    11:00 +30°C° 0.1 mm 3 m/s 662 mmHg 41%
    12:00 +31°C° 0.1 mm 3 m/s 662 mmHg 37%
    13:00 +33°C° 0.1 mm 3 m/s 662 mmHg 32%
    14:00 +34°C° 0.1 mm 3 m/s 661 mmHg 29%
    15:00 +34°C° 0.1 mm 3 m/s 661 mmHg 26%
    16:00 +35°C° 0.1 mm 3 m/s 661 mmHg 23%
    17:00 +35°C° 0 mm 3 m/s 661 mmHg 23%
    18:00 +35°C° 0 mm 2 m/s 661 mmHg 23%
    19:00 +33°C° 0 mm 1 m/s 661 mmHg 23%
    20:00 +32°C° 0 mm 2 m/s 661 mmHg 28%
    21:00 +31°C° 0 mm 3 m/s 661 mmHg 33%
    22:00 +30°C° 0 mm 5 m/s 661 mmHg 38%
    23:00 +29°C° 0 mm 5 m/s 661 mmHg 40%

    23 Juillet, Mardi

    Heure Température Précipitation Vent Pression Humidité
    00:00 +29°C° 0 mm 5 m/s 661 mmHg 42%
    01:00 +28°C° 0 mm 5 m/s 660 mmHg 44%
    02:00 +28°C° 0 mm 4 m/s 660 mmHg 43%
    03:00 +28°C° 0 mm 4 m/s 660 mmHg 43%
    04:00 +28°C° 0 mm 3 m/s 660 mmHg 43%
    05:00 +28°C° 0 mm 3 m/s 661 mmHg 40%
    06:00 +29°C° 0 mm 3 m/s 661 mmHg 37%
    07:00 +30°C° 0 mm 3 m/s 661 mmHg 34%
    08:00 +33°C° 0 mm 3 m/s 661 mmHg 30%
    09:00 +34°C° 0 mm 3 m/s 661 mmHg 25%
    10:00 +36°C° 0 mm 3 m/s 662 mmHg 20%
    11:00 +37°C° 0 mm 4 m/s 661 mmHg 18%
    12:00 +38°C° 0 mm 4 m/s 661 mmHg 16%
    13:00 +40°C° 0 mm 4 m/s 661 mmHg 14%
    14:00 +40°C° 0 mm 5 m/s 660 mmHg 14%
    15:00 +40°C° 0 mm 5 m/s 660 mmHg 14%
    16:00 +39°C° 0 mm 5 m/s 659 mmHg 14%
    17:00 +39°C° 0 mm 5 m/s 659 mmHg 15%
    18:00 +37°C° 0 mm 4 m/s 660 mmHg 16%
    19:00 +37°C° 0 mm 4 m/s 660 mmHg 17%
    20:00 +35°C° 0 mm 5 m/s 660 mmHg 19%
    21:00 +33°C° 0 mm 7 m/s 660 mmHg 22%
    22:00 +31°C° 0 mm 8 m/s 660 mmHg 25%
    23:00 +28°C° 0.1 mm 10 m/s 661 mmHg 34%

    24 Juillet, Mercredi

    Heure Température Précipitation Vent Pression Humidité
    00:00 +27°C° 0.1 mm 11 m/s 661 mmHg 42%
    01:00 +24°C° 0.1 mm 12 m/s 661 mmHg 51%
    02:00 +23°C° 0.7 mm 9 m/s 661 mmHg 57%
    03:00 +22°C° 0.7 mm 5 m/s 661 mmHg 63%
    04:00 +21°C° 0.7 mm 2 m/s 661 mmHg 69%
    05:00 +23°C° 0 mm 2 m/s 661 mmHg 63%
    06:00 +24°C° 0 mm 3 m/s 662 mmHg 56%
    07:00 +25°C° 0 mm 4 m/s 662 mmHg 49%
    08:00 +27°C° 0 mm 5 m/s 662 mmHg 42%
    09:00 +29°C° 0 mm 5 m/s 662 mmHg 35%
    10:00 +32°C° 0 mm 6 m/s 663 mmHg 28%
    11:00 +34°C° 0 mm 7 m/s 662 mmHg 25%
    12:00 +35°C° 0 mm 7 m/s 662 mmHg 21%
    13:00 +37°C° 0 mm 8 m/s 662 mmHg 17%
    14:00 +37°C° 0 mm 8 m/s 662 mmHg 16%
    15:00 +37°C° 0 mm 8 m/s 661 mmHg 16%
    16:00 +38°C° 0 mm 8 m/s 661 mmHg 15%
    17:00 +36°C° 0 mm 6 m/s 661 mmHg 16%
    18:00 +36°C° 0 mm 5 m/s 660 mmHg 16%
    19:00 +35°C° 0 mm 3 m/s 660 mmHg 17%
    20:00 +34°C° 0 mm 3 m/s 660 mmHg 18%
    21:00 +32°C° 0 mm 2 m/s 660 mmHg 18%
    22:00 +31°C° 0 mm 2 m/s 661 mmHg 19%
    23:00 +31°C° 0 mm 2 m/s 660 mmHg 21%
    Voir plus